This demonstration page uses our WeatherBlox Daily Observations layout. Learn more.

Left ArrowRight Arrow

39.01783, -85.05884

Hourly Observations for May 28, 2018

Temp ( °F °C ) Dew Point ( °F °C ) Humidity (%) Winds ( mph kmh ) Pressure ( in mb ) Visibility ( mi km ) Precip ( " mm )
12:52 am 00:52 Mostly Cloudy 70 21.1 66 18.9 87 87 S 8 13 29.92 1013 10 16 0.00 0.00
1:52 am 01:52 Cloudy 73 22.8 66 18.9 79 79 Calm 29.92 1013 10 16 0.00 0.00
2:52 am 02:52 Cloudy 71 21.7 66 18.9 84 84 Calm 29.93 1013 10 16 0.00 0.00
3:52 am 03:52 Mostly Cloudy 68 20 66 18.9 93 93 ESE 3 6 29.92 1013 10 16 0.00 0.00
4:52 am 04:52 Partly Cloudy 70 21.1 65 18.3 84 84 E 5 7 29.92 1013 10 16 0.00 0.00
5:52 am 05:52 Mostly Cloudy 68 20 65 18.3 90 90 Calm 29.91 1013 8 13 0.00 0.00
6:52 am 06:52 Mostly Cloudy 69 20.6 65 18.3 87 87 Calm 29.93 1014 10 16 0.00 0.00
7:52 am 07:52 Mostly Cloudy 73 22.8 67 19.4 81 81 Calm 29.95 1014 10 16 0.00 0.00
8:52 am 08:52 Mostly Cloudy 77 25 67 19.4 71 71 Calm 29.95 1014 10 16 0.00 0.00
9:52 am 09:52 Mostly Cloudy 80 26.7 69 20.6 69 69 E 5 7 29.96 1014 10 16 0.00 0.00
10:52 am 10:52 Partly Cloudy 83 28.3 68 20 61 61 E 10 17 29.95 1014 10 16 0.00 0.00
11:52 am 11:52 Partly Cloudy 85 29.4 67 19.4 55 55 NE 7 11 29.96 1015 10 16 0.00 0.00
12:52 pm 12:52 Mostly Cloudy 87 30.6 66 18.9 50 50 NE 8 13 29.96 1014 10 16 0.00 0.00
1:52 pm 13:52 Mostly Cloudy 88 31.1 65 18.3 46 46 E 14 22 29.94 1014 10 16 0.00 0.00
2:52 pm 14:52 Mostly Cloudy 88 31.1 64 17.8 45 45 E 12 19 29.92 1013 10 16 0.00 0.00
3:52 pm 15:52 Mostly Cloudy 89 31.7 62 16.7 41 41 ENE 15 24 29.91 1013 10 16 0.00 0.00
4:52 pm 16:52 Mostly Cloudy 89 31.7 64 17.8 43 43 ENE 13 20 29.88 1012 10 16 0.00 0.00
5:52 pm 17:52 Mostly Cloudy 88 31.1 62 16.7 42 42 E 15 24 29.88 1012 10 16 0.00 0.00
6:52 pm 18:52 Mostly Cloudy 85 29.4 65 18.3 51 51 ESE 10 17 29.88 1012 10 16 0.00 0.00
7:52 pm 19:52 Cloudy 83 28.3 65 18.3 55 55 ESE 9 15 29.89 1012 10 16 0.00 0.00
8:52 pm 20:52 Cloudy 82 27.8 66 18.9 58 58 SE 13 20 29.90 1012 10 16 0.00 0.00
9:52 pm 21:52 Cloudy 77 25 64 17.8 64 64 SSE 15 24 29.91 1013 10 16 0.00 0.00
10:52 pm 22:52 Cloudy 74 23.3 63 17.2 69 69 SSE 10 17 29.92 1013 10 16 0.00 0.00
11:52 pm 23:52 Mostly Cloudy 73 22.8 64 17.8 74 74 Calm 29.93 1013 10 16 0.00 0.00

Powered by AerisWeather